This demonstration page uses our WeatherBlox Daily Observations layout. Learn more.

Left ArrowRight Arrow

36.17497, -115.13722

Hourly Observations for May 27, 2016

Temp ( °F °C ) Dew Point ( °F °C ) Humidity (%) Winds ( mph kmh ) Pressure ( in mb ) Visibility ( mi km ) Precip ( " mm )
12:53 am 00:53 Mostly Clear 73 22.8 34 1.1 24 24 ENE 9 15 29.83 1010 10 16.0934 0 0
1:53 am 01:53 Clear 71 21.7 33 0.6 25 25 Calm 29.83 1010 10 16.0934 0 0
2:53 am 02:53 Clear 70 21.1 34 1.1 27 27 Calm 29.83 1010 10 16.0934 0 0
3:53 am 03:53 Clear 68 20 36 2.2 31 31 SSW 7 11 29.83 1010 10 16.0934 0 0
4:53 am 04:53 Clear 67 19.4 36 2.2 32 32 WNW 3 6 29.85 1011 10 16.0934 0 0
5:53 am 05:53 Sunny 65 18.3 37 2.8 36 36 NW 7 11 29.86 1011 10 16.0934 0 0
6:53 am 06:53 Sunny 69 20.6 36 2.2 30 30 W 3 6 29.88 1012 10 16.0934 0 0
7:53 am 07:53 Sunny 72 22.2 38 3.3 29 29 WNW 5 7 29.88 1012 10 16.0934 0 0
8:53 am 08:53 Sunny 76 24.4 34 1.1 22 22 WNW 5 7 29.88 1012 10 16.0934 0 0
9:53 am 09:53 Sunny 78 25.6 34 1.1 20 20 VRB 6 9 29.88 1012 10 16.0934 0 0
10:53 am 10:53 Sunny 80 26.7 34 1.1 19 19 Calm 29.87 1011 10 16.0934 0 0
11:53 am 11:53 Sunny 83 28.3 33 0.6 17 17 VRB 5 7 29.84 1011 10 16.0934 0 0
12:53 pm 12:53 Sunny 85 29.4 33 0.6 15 15 VRB 7 11 29.82 1010 10 16.0934 0 0
1:53 pm 13:53 Sunny 85 29.4 32 0 15 15 undefined N/A 29.79 1009 10 16.0934 0 0
2:53 pm 14:53 Sunny 85 29.4 31 -0.6 14 14 VRB 3 6 29.76 1008 10 16.0934 0 0
3:53 pm 15:53 Sunny 87 30.6 31 -0.6 13 13 VRB 6 9 29.74 1007 10 16.0934 0 0
4:53 pm 16:53 Sunny 87 30.6 31 -0.6 13 13 Calm 29.73 1007 10 16.0934 0 0
5:53 pm 17:53 Sunny 87 30.6 30 -1.1 13 13 ESE 5 7 29.71 1006 10 16.0934 0 0
6:53 pm 18:53 Sunny 87 30.6 30 -1.1 13 13 Calm 29.71 1006 10 16.0934 0 0
7:53 pm 19:53 Clear 86 30 28 -2.2 12 12 Calm 29.72 1007 10 16.0934 0 0
8:53 pm 20:53 Clear 84 28.9 26 -3.3 12 12 W 12 19 29.73 1007 10 16.0934 0 0
9:53 pm 21:53 Clear 82 27.8 28 -2.2 14 14 SSW 6 9 29.75 1007 10 16.0934 0 0
10:53 pm 22:53 Clear 79 26.1 30 -1.1 17 17 NNW 6 9 29.76 1008 10 16.0934 0 0
11:53 pm 23:53 Clear 79 26.1 29 -1.7 16 16 Calm 29.76 1008 10 16.0934 0 0

Powered by AerisWeather